STARLINK-1735, 46565

Orbit data source: Space-Track

STARLINK-1735, 46565 is a payload satellite owned by SpaceX/Seattle (US) in LEO that was launched on Tue, 06 Oct 2020 UTC via an FALCON 9 launch vehicle from the Air Force Eastern Test Range (AFETR). Payload-class satellites include a variety of spacecraft equipped with specific instruments for various scientific and technological missions. These include communications satellites like Starlink; space stations such as the ISS; scientific satellites like the Hubble; Earth observation satellites from companies like Planet Labs, Umbra, and HawkEye 360; GPS; miniature CubeSats for education and research; and military/defense satellites.

Loading next visibility...
Identifier
46565, 2020-070AK
Orbit
LEO
Country
Flag of USUS
Related business
Manufacturer
SpaceX/Seattle
Mission
Operational Commercial Communications
Bus & Motor
STARLINK, Unknown motor
Mass
260 kg wet, ~248 kg dry
Launch date (UTC)
2020-10-06 (5 years ago)
Launch vehicle
FALCON 9
Launch site
Air Force Eastern Test Range (AFETR)
Object type
Payload
Rocket body
Debris
Shape & HBR
Box + 1 Pan, 10.1 m
Radar Cross Section
13.562 m², Large (>1 m²)

Expand to show TLE details & history
Last TLE update: 7 hours ago

TLE from 7 hours ago
0 STARLINK-1735
1 46565U 20070AK  25298.50003471  .01952947  00000-0  95254-1 0  9994
2 46565  53.0546  43.3216 0001661  91.0337  65.0242 15.14238217  5836
Epoch: 2025-10-25T12:00Z
TLE epoch observation values (Epoch: 2025-10-25T12:00:02.998Z)
Latitude
18.94804°
Longitude
-5.69927°
Altitude
523.182 km
Speed
7.605 km/s
True Right ascension
13h 53m 46s
True Declination
18° 50' 21"
Sunlit
Object was in daylight at epoch
Visualization orbit readout
Latitude
Unknown
Longitude
Unknown
Altitude
Unknown
Speed
Unknown
Apparent Right ascension
Unknown
Apparent Declination
Unknown
Sunlit
N/A
Visualization observer readout
Local Sidereal Time
14:02:57
Azimuth
Unknown
Elevation
Unknown
Doppler factor
Unknown
Orbital elements
Apogee altitude
524.71 km
Perigee altitude
522.417 km
Semi-major axis
6,901.701 km
Eccentricity
0.00017
Inclination
53.0546°
RAAN
43.3216°
Arg. of periapsis
91.0337°
True anomaly
65.04146°
Mean anomaly
65.0242°
Eccentric anomaly
65.03283°
Mean motion
3.78538 °/min
Orbital period
95.1 mins
BSTAR
0.095254
Loading maneuver chart data...
Computing Atmospheric mass density...

Documentation

Showing up to 5 results
|